Terug naar catalogus

THOR ABLESTAR DEB

ActiefLEO
NORAD 210·DEBRIS·🇺🇸 United States

Gelanceerd Jun 29, 1961 vanaf Cape Canaveral Space Force Station

Loading…

Volgende Passages (komende 24 uur)

TLE

VersSource: Space-Track

Epoch: Sep 14, 2026, 16:44 UTC

1 00210U 61015BE  26257.69778035  .00000345  00000-0  34461-3 0  9996
2 00210  66.4565 144.5775 0053183 258.5991 100.9107 13.89160734277836

Volg THOR ABLESTAR DEB in realtime met AllMySat

Download on the App Store